TimeMST,TemperatureF,Dew PointF,Humidity,Sea Level PressureIn,VisibilityMPH,Wind Direction,Wind SpeedMPH,Gust SpeedMPH,PrecipitationIn,Events,Conditions,WindDirDegrees,DateUTC
12:55 AM,66.2,46.4,49,29.81,10.0,SW,10.4,-,N/A,,Clear,220,2013-10-04 07:55:00
1:55 AM,64.4,46.4,52,29.80,10.0,Variable,5.8,17.3,N/A,,Clear,0,2013-10-04 08:55:00
2:55 AM,60.8,46.4,59,29.81,10.0,Calm,Calm,-,N/A,,Clear,0,2013-10-04 09:55:00
3:55 AM,60.8,44.6,55,29.83,10.0,SSW,6.9,-,N/A,,Clear,200,2013-10-04 10:55:00
4:55 AM,59.0,44.6,59,29.84,10.0,South,8.1,-,N/A,,Clear,180,2013-10-04 11:55:00
5:55 AM,57.2,44.6,63,29.86,10.0,Calm,Calm,-,N/A,,Clear,0,2013-10-04 12:55:00
6:55 AM,57.2,44.6,63,29.89,10.0,Calm,Calm,-,N/A,,Partly Cloudy,0,2013-10-04 13:55:00
7:55 AM,64.4,46.4,52,29.90,10.0,East,4.6,-,N/A,,Partly Cloudy,100,2013-10-04 14:55:00
8:55 AM,66.2,44.6,46,29.91,10.0,ENE,5.8,-,N/A,,Partly Cloudy,70,2013-10-04 15:55:00
9:55 AM,71.6,41.0,33,29.91,10.0,ESE,4.6,-,N/A,,Clear,110,2013-10-04 16:55:00
10:55 AM,73.4,35.6,25,29.91,10.0,Variable,4.6,-,N/A,,Partly Cloudy,0,2013-10-04 17:55:00
11:55 AM,78.8,28.4,16,29.90,10.0,WSW,12.7,20.7,N/A,,Clear,240,2013-10-04 18:55:00
12:55 PM,80.6,23.0,12,29.87,10.0,WSW,18.4,25.3,N/A,,Clear,250,2013-10-04 19:55:00
1:55 PM,80.6,26.6,14,29.86,10.0,WSW,10.4,21.9,N/A,,Clear,250,2013-10-04 20:55:00
2:55 PM,80.6,26.6,14,29.87,10.0,West,15.0,23.0,N/A,,Clear,280,2013-10-04 21:55:00
3:55 PM,80.6,28.4,15,29.87,10.0,WSW,10.4,21.9,N/A,,Clear,240,2013-10-04 22:55:00
4:55 PM,77.0,28.4,17,29.88,10.0,West,16.1,23.0,N/A,,Clear,280,2013-10-04 23:55:00
5:55 PM,73.4,28.4,19,29.90,10.0,West,11.5,-,N/A,,Clear,260,2013-10-05 00:55:00
6:55 PM,71.6,32.0,23,29.92,10.0,WSW,9.2,-,N/A,,Clear,240,2013-10-05 01:55:00
7:55 PM,69.8,28.4,21,29.94,10.0,WSW,11.5,-,N/A,,Clear,240,2013-10-05 02:55:00
8:55 PM,64.4,30.2,28,29.97,10.0,WNW,12.7,-,N/A,,Clear,290,2013-10-05 03:55:00
9:55 PM,62.6,37.4,39,29.98,10.0,West,10.4,-,N/A,,Clear,260,2013-10-05 04:55:00
10:55 PM,60.8,35.6,39,29.98,10.0,WSW,9.2,-,N/A,,Clear,250,2013-10-05 05:55:00
11:56 PM,59.0,30.0,33,29.98,10.0,West,9.2,-,N/A,,Clear,260,2013-10-05 06:56:00